sat.trackr.live / text

‹ back to catalog

STARLINK-30083

NORAD 56295 · 2023-056K

PAYLOAD ACTIVE UNKNOWN

§ Identity

Operator
Country
US
Launch date
2023-04-19
Launch site
AFETR
Launch vehicle
Mass (kg)
RCS (m²)

Purposes: comms

External: N2YO · Heavens-Above · Gunter

§ Orbital elements

Epoch: 2026-09-20T10:36:46.224288Z

Period
94.27 min
Inclination
43.0019°
Eccentricity
0.0001259
Mean motion
15.27588362 rev/d
Perigee alt
482.2 km
Apogee alt
483.9 km
Semi-major
6,861.2 km
B*
6.3439e-5
RAAN
163.8580°
Arg perigee
278.3751°
Mean anomaly
81.6958°
Rev number
19,010

§ Raw data

STARLINK-300831 56295U 23056K   26263.44220167  .00001484  00000+0  63439-4 0  99932 56295  43.0019 163.8580 0001259 278.3751  81.6958 15.27588362190102

JSON: /api/v1/satellites/56295 · /tle

For live sub-satellite position, see the globe view (requires WebGL).

§ Visibility from observer

Set your observer location to see the next 7 days of passes ≥ 10°. The values pass through the URL so the page stays shareable.

No JS? Fill the form by hand. The geolocation button needs JavaScript.